FW9488 Weather Reports


time (UTC)temp
C
wind
direction
speed
KPH
gust
KPH
rain 1hr
cm
rain 24hr
cm
rain mn
cm
humidity
%
barometer
mb
20260506233053 30 238 8.0 16.1 0.00 0.00 0.00 17 1013.3
20260506231554 30 159 8.0 19.3 0.00 0.00 0.00 17 1013.4
20260506230052 29 153 3.2 12.9 0.00 0.00 0.00 17 1013.5
20260506224605 29 326 12.9 37.0 0.00 0.00 0.00 18 1013.6
20260506223059 29 346 3.2 20.9 0.00 0.00 0.00 18 1013.8
20260506221549 28 24 4.8 19.3 0.00 0.00 0.00 18 1014.0
20260506214549 28 276 6.4 16.1 0.00 0.00 0.00 19 1014.4
20260506213049 27 130 4.8 17.7 0.00 0.00 0.00 20 1014.9
20260506211554 27 63 3.2 16.1 0.00 0.00 0.00 21 1015.2
20260506210051 27 247 9.7 17.7 0.00 0.00 0.00 21 1015.3
20260506204554 27 258 4.8 12.9 0.00 0.00 0.00 23 1015.4
20260506203058 26 238 9.7 16.1 0.00 0.00 0.00 24 1015.5
20260506201553 26 352 3.2 14.5 0.00 0.00 0.00 26 1015.8
20260506200047 25 306 1.6 16.1 0.00 0.00 0.00 26 1015.9
20260506194552 25 286 8.0 16.1 0.00 0.00 0.00 27 1016.1
20260506193053 25 263 6.4 14.5 0.00 0.00 0.00 28 1016.2
20260506191548 24 109 3.2 16.1 0.00 0.00 0.00 28 1016.3
20260506190051 23 303 6.4 20.9 0.00 0.00 0.00 30 1016.7
20260506184550 23 248 6.4 14.5 0.00 0.00 0.00 30 1016.8
20260506183046 22 89 3.2 14.5 0.00 0.00 0.00 31 1017.1
20260506181600 22 122 1.6 11.3 0.00 0.00 0.00 32 1017.1
20260506180055 21 250 3.2 9.7 0.00 0.00 0.00 32 1017.3
20260506174549 21 326 4.8 12.9 0.00 0.00 0.00 33 1017.5
20260506173119 20 26 6.4 14.5 0.00 0.00 0.00 33 1017.5
20260506171555 20 351 8.0 14.5 0.00 0.00 0.00 34 1017.3
20260506170055 19 302 3.2 6.4 0.00 0.00 0.00 36 1017.3
20260506164548 19 0 1.6 8.0 0.00 0.00 0.00 37 1017.2
20260506163049 18 281 1.6 8.0 0.00 0.00 0.00 37 1017.3
20260506161550 18 59 0.0 8.0 0.00 0.00 0.00 39 1017.2
20260506160100 18 242 1.6 8.0 0.00 0.00 0.00 38 1017.3
20260506154552 17 181 0.0 3.2 0.00 0.00 0.00 40 1017.2
20260506153054 16 0 1.6 8.0 0.00 0.00 0.00 41 1017.2
20260506151551 16 0 1.6 4.8 0.00 0.00 0.00 40 1017.2
20260506150053 15 0 0.0 0.0 0.00 0.00 0.00 43 1017.2
20260506144553 14 0 0.0 0.0 0.00 0.00 0.00 45 1017.2
20260506143049 13 0 0.0 0.0 0.00 0.00 0.00 46 1016.9
20260506141551 12 0 0.0 0.0 0.00 0.00 0.00 47 1016.8
20260506140049 11 0 0.0 0.0 0.00 0.00 0.00 49 1016.7
20260506134551 10 0 0.0 0.0 0.00 0.00 0.00 53 1016.6
20260506133101 8 0 0.0 0.0 0.00 0.00 0.00 54 1016.2
20260506131600 7 0 0.0 0.0 0.00 0.00 0.00 56 1016.0
20260506130054 7 0 1.6 3.2 0.00 0.00 0.00 55 1015.8
20260506124549 8 0 0.0 0.0 0.00 0.00 0.00 54 1015.7
20260506123049 8 0 0.0 3.2 0.00 0.00 0.00 52 1015.5
20260506121545 8 0 0.0 0.0 0.00 0.00 0.00 52 1015.2
20260506120050 8 0 0.0 0.0 0.00 0.00 0.00 51 1015.2
20260506114553 8 0 0.0 1.6 0.00 0.00 0.00 51 1015.3
20260506113049 8 0 0.0 0.0 0.00 0.00 0.00 49 1015.1
20260506111547 9 0 0.0 0.0 0.00 0.00 0.00 47 1014.9
20260506104549 10 0 0.0 0.0 0.00 0.00 0.00 45 1014.4
20260506103049 10 0 0.0 1.6 0.00 0.00 0.00 42 1014.4
20260506101549 11 360 0.0 6.4 0.00 0.00 0.00 40 1014.3
20260506100049 13 360 1.6 6.4 0.00 0.00 0.00 44 1014.0
20260506094619 12 360 3.2 9.7 0.00 0.00 0.00 47 1014.0
20260506093053 11 0 0.0 3.2 0.00 0.00 0.00 45 1013.9
20260506091552 11 0 0.0 1.6 0.00 0.00 0.00 43 1013.9
20260506090052 12 360 1.6 4.8 0.00 0.00 0.00 42 1013.7
20260506084551 11 360 1.6 4.8 0.00 0.00 0.00 41 1013.8
20260506083105 11 360 1.6 6.4 0.00 0.00 0.00 41 1013.5
20260506081551 12 360 1.6 4.8 0.00 0.00 0.00 39 1013.6
20260506073050 12 0 0.0 0.0 0.00 0.00 0.00 38 1013.4
20260506071555 12 0 0.0 3.2 0.00 0.00 0.00 37 1013.4
20260506061550 15 0 0.0 1.6 0.00 0.00 0.00 35 1012.7
20260506060109 15 86 1.6 6.4 0.00 0.00 0.00 34 1012.8
20260506044605 15 0 0.0 0.0 0.00 0.00 0.00 36 1012.2
20260506043047 16 0 0.0 0.0 0.00 0.00 0.00 35 1012.0
20260506041555 16 0 0.0 3.2 0.00 0.00 0.00 35 1011.8
20260506040052 16 0 0.0 1.6 0.00 0.00 0.00 34 1011.5
20260506034549 17 0 0.0 0.0 0.00 0.00 0.00 33 1011.3
20260506033052 18 0 0.0 3.2 0.00 0.00 0.00 31 1011.0
20260506031557 18 0 0.0 3.2 0.00 0.00 0.00 31 1010.8
20260506030052 19 0 0.0 3.2 0.00 0.00 0.00 30 1010.4
20260506024559 20 0 0.0 1.6 0.00 0.00 0.00 30 1010.3
20260506023100 20 0 1.6 6.4 0.00 0.00 0.00 29 1010.0
20260506021556 20 174 3.2 11.3 0.00 0.00 0.00 29 1009.9
20260506020053 21 153 4.8 11.3 0.00 0.00 0.00 29 1009.7
20260506014558 21 212 6.4 12.9 0.00 0.00 0.00 28 1009.6
20260506013046 21 235 3.2 14.5 0.00 0.00 0.00 28 1009.5
20260506011549 22 192 4.8 12.9 0.00 0.00 0.00 28 1009.5
20260506010057 21 237 4.8 12.9 0.00 0.00 0.00 28 1009.5
20260506004553 21 241 4.8 12.9 0.00 0.00 0.00 28 1009.4
20260506003050 22 214 8.0 17.7 0.00 0.00 0.00 28 1009.4
20260506001551 22 217 6.4 14.5 0.00 0.00 0.00 29 1009.5
20260506000053 21 186 12.9 22.5 0.00 0.00 0.00 29 1009.3
20260505234554 21 293 9.7 19.3 0.00 0.00 0.00 29 1009.2